Weather History for Grove, OK

Change the Weather History Date:

Saturday, October 1, 2011

  Actual Average (KSLG) Record (KSLG)
Temperature  
Mean Temperature 57 °F -  
Max Temperature 73 °F 72 °F 87 °F (2002)
Min Temperature 41 °F 51 °F 41 °F (2011)
Degree Days  
Heating Degree Days 8    
Growing Degree Days 7 (Base 50)    
Moisture  
Dew Point 43 °F    
Average Humidity 69    
Maximum Humidity 100    
Minimum Humidity 27    
Precipitation  
Precipitation 0.00 in - - ()
Sea Level Pressure  
Sea Level Pressure 30.24 in    
Wind  
Wind Speed 1 mph (NE)    
Max Wind Speed 7 mph    
Max Gust Speed -    
Visibility 9 miles    
Events      
Averages and records for this station are not official NWS values.
T = Trace of Precipitation, MM = Missing Value Source: NWS Daily Summary

Daily Weather History Graph

Daily Weather History Graph

Search for Another Location

Airport:

Trip Planner

Search our weather history database for the weather conditions in past years. The results will help you decide how hot, cold, wet, or windy it might be!

Date:

Astronomy

Oct. 01, 2011 Rise Set
Actual Time 7:13 AM CDT 7:02 PM CDT
Civil Twilight 6:48 AM CDT 7:28 PM CDT
Nautical Twilight 6:18 AM CDT 7:58 PM CDT
Astronomical Twilight 5:48 AM CDT 8:28 PM CDT
Moon 12:11 PM CDT (10/1) 10:10 PM CDT (10/1)
Length of Visible Light 12h 40m
Length of Day
11h 48m
Waxing Crescent, 24% of the Moon is Illuminated
Oct 1
Waxing Crescent
Oct 3
First Quarter
Oct 11
Full
Oct 19
Last Quarter
Oct 26
New

Hourly Weather History & Observations

Time (CDT) Temp. Dew Point Humidity Pressure Visibility Wind Dir Wind Speed Gust Speed Precip Events Conditions
12:15 AM 48.2 °F 48.2 °F 100% 30.19 in 10.0 mi Calm Calm - N/A   Clear
12:35 AM 46.4 °F 46.4 °F 100% 30.19 in 7.0 mi Calm Calm - N/A   Clear
12:55 AM 46.4 °F 46.4 °F 100% 30.19 in 7.0 mi Calm Calm - N/A   Clear
1:15 AM 46.4 °F 46.4 °F 100% 30.20 in 7.0 mi Calm Calm - N/A   Clear
1:35 AM 44.6 °F 44.6 °F 100% 30.20 in 7.0 mi Calm Calm - N/A   Clear
1:55 AM 44.6 °F 44.6 °F 100% 30.20 in 7.0 mi Calm Calm - N/A   Clear
2:15 AM 44.6 °F 44.6 °F 100% 30.21 in 10.0 mi Calm Calm - N/A   Clear
2:35 AM 44.6 °F 44.6 °F 100% 30.21 in 10.0 mi Calm Calm - N/A   Clear
2:55 AM 44.6 °F 44.6 °F 100% 30.21 in 3.0 mi Calm Calm - N/A   Clear
3:15 AM 44.6 °F 44.6 °F 100% 30.21 in 10.0 mi Calm Calm - N/A   Clear
3:35 AM 42.8 °F 42.8 °F 100% 30.21 in 7.0 mi Calm Calm - N/A   Clear
3:55 AM 42.8 °F 42.8 °F 100% 30.21 in 4.0 mi Calm Calm - N/A   Clear
4:15 AM 42.8 °F 42.8 °F 100% 30.22 in 10.0 mi Calm Calm - N/A   Clear
4:35 AM 42.8 °F 42.8 °F 100% 30.22 in 10.0 mi Calm Calm - N/A   Clear
4:55 AM 42.8 °F 42.8 °F 100% 30.22 in 7.0 mi Calm Calm - N/A   Clear
5:15 AM 42.8 °F 42.8 °F 100% 30.23 in 10.0 mi Calm Calm - N/A   Clear
5:35 AM 42.8 °F 42.8 °F 100% 30.23 in 10.0 mi Calm Calm - N/A   Clear
5:55 AM 41.0 °F 41.0 °F 100% 30.24 in 5.0 mi Calm Calm - N/A   Clear
6:15 AM 41.0 °F 41.0 °F 100% 30.24 in 10.0 mi Calm Calm - N/A   Clear
6:35 AM 42.8 °F 42.8 °F 100% 30.24 in 10.0 mi Calm Calm - N/A   Clear
6:55 AM 41.0 °F 41.0 °F 100% 30.24 in 10.0 mi Calm Calm - N/A   Clear
7:15 AM 41.0 °F 41.0 °F 100% 30.25 in 10.0 mi Calm Calm - N/A   Clear
7:35 AM 41.0 °F 41.0 °F 100% 30.25 in 10.0 mi Calm Calm - N/A   Clear
7:55 AM 42.8 °F 42.8 °F 100% 30.26 in 10.0 mi Calm Calm - N/A   Clear
8:15 AM 42.8 °F 42.8 °F 100% 30.26 in 10.0 mi Calm Calm - N/A   Clear
8:35 AM 46.4 °F 46.4 °F 100% 30.27 in 10.0 mi Calm Calm - N/A   Clear
8:55 AM 48.2 °F 46.4 °F 93% 30.28 in 10.0 mi Calm Calm - N/A   Clear
9:15 AM 51.8 °F 48.2 °F 88% 30.28 in 10.0 mi Calm Calm - N/A   Clear
9:35 AM 53.6 °F 46.4 °F 77% 30.28 in 10.0 mi Calm Calm - N/A   Clear
9:55 AM 59.0 °F 48.2 °F 67% 30.29 in 10.0 mi Calm Calm - N/A   Clear
10:15 AM 60.8 °F 48.2 °F 63% 30.29 in 10.0 mi Calm Calm - N/A   Clear
10:35 AM 62.6 °F 48.2 °F 59% 30.29 in 10.0 mi Calm Calm - N/A   Clear
10:55 AM 64.4 °F 46.4 °F 52% 30.29 in 10.0 mi NE 4.6 mph - N/A   Clear
11:15 AM 68.0 °F 42.8 °F 40% 30.29 in 10.0 mi East 6.9 mph - N/A   Clear
11:35 AM 69.8 °F 41.0 °F 35% 30.29 in 10.0 mi East 4.6 mph - N/A   Clear
11:55 AM 69.8 °F 41.0 °F 35% 30.29 in 10.0 mi East 5.8 mph - N/A   Clear
12:15 PM 69.8 °F 41.0 °F 35% 30.28 in 10.0 mi NE 5.8 mph - N/A   Clear
12:35 PM 69.8 °F 41.0 °F 35% 30.28 in 10.0 mi Calm Calm - N/A   Clear
12:55 PM 69.8 °F 41.0 °F 35% 30.28 in 10.0 mi North 6.9 mph - N/A   Clear
1:15 PM 71.6 °F 41.0 °F 33% 30.28 in 10.0 mi ENE 4.6 mph - N/A   Clear
1:35 PM 69.8 °F 41.0 °F 35% 30.26 in 10.0 mi Calm Calm - N/A   Clear
1:55 PM 71.6 °F 41.0 °F 33% 30.25 in 10.0 mi ENE 4.6 mph - N/A   Clear
2:15 PM 71.6 °F 39.2 °F 31% 30.25 in 10.0 mi East 3.5 mph - N/A   Clear
2:35 PM 73.4 °F 41.0 °F 31% 30.24 in 10.0 mi NNE 5.8 mph - N/A   Clear
2:55 PM 73.4 °F 42.8 °F 33% 30.23 in 10.0 mi Calm Calm - N/A   Clear
3:15 PM 73.4 °F 41.0 °F 31% 30.23 in 10.0 mi NNE 5.8 mph - N/A   Clear
3:35 PM 73.4 °F 41.0 °F 31% 30.23 in 10.0 mi NNW 3.5 mph - N/A   Clear
3:55 PM 73.4 °F 41.0 °F 31% 30.23 in 10.0 mi ENE 3.5 mph - N/A   Clear
4:15 PM 73.4 °F 39.2 °F 29% 30.22 in 10.0 mi Calm Calm - N/A   Clear
4:35 PM 73.4 °F 39.2 °F 29% 30.22 in 10.0 mi Calm Calm - N/A   Clear
4:55 PM 73.4 °F 41.0 °F 31% 30.21 in 10.0 mi Calm Calm - N/A   Clear
5:15 PM 73.4 °F 39.2 °F 29% 30.21 in 10.0 mi ENE 5.8 mph - N/A   Clear
5:35 PM 73.4 °F 37.4 °F 27% 30.21 in 10.0 mi Calm Calm - N/A   Clear
5:55 PM 73.4 °F 41.0 °F 31% 30.21 in 10.0 mi Calm Calm - N/A   Clear
6:15 PM 71.6 °F 41.0 °F 33% 30.21 in 10.0 mi East 3.5 mph - N/A   Clear
6:35 PM 69.8 °F 42.8 °F 38% 30.21 in 10.0 mi Calm Calm - N/A   Clear
7:15 PM 68.0 °F 42.8 °F 40% 30.22 in 10.0 mi Calm Calm - N/A   Clear
7:35 PM 60.8 °F 46.4 °F 59% 30.22 in 10.0 mi Calm Calm - N/A   Clear
7:55 PM 59.0 °F 44.6 °F 59% 30.22 in 10.0 mi Calm Calm - N/A   Clear
8:15 PM 59.0 °F 48.2 °F 67% 30.22 in 10.0 mi Calm Calm - N/A   Clear
8:35 PM 55.4 °F 48.2 °F 77% 30.23 in 10.0 mi Calm Calm - N/A   Clear
8:55 PM 55.4 °F 46.4 °F 72% 30.23 in 10.0 mi Calm Calm - N/A   Clear
9:15 PM 53.6 °F 48.2 °F 82% 30.23 in 10.0 mi Calm Calm - N/A   Clear
9:35 PM 51.8 °F 46.4 °F 82% 30.23 in 10.0 mi Calm Calm - N/A   Clear
9:55 PM 51.8 °F 46.4 °F 82% 30.23 in 10.0 mi Calm Calm - N/A   Clear
10:15 PM 51.8 °F 46.4 °F 82% 30.23 in 10.0 mi Calm Calm - N/A   Clear
10:35 PM 51.8 °F 46.4 °F 82% 30.23 in 10.0 mi Calm Calm - N/A   Clear
10:55 PM 51.8 °F 46.4 °F 82% 30.24 in 10.0 mi Calm Calm - N/A   Clear
11:15 PM 50.0 °F 46.4 °F 87% 30.24 in 10.0 mi Calm Calm - N/A   Clear
11:35 PM 50.0 °F 48.2 °F 94% 30.24 in 10.0 mi Calm Calm - N/A   Clear
11:55 PM 48.2 °F 46.4 °F 93% 30.24 in 10.0 mi Calm Calm - N/A   Clear